| time (UTC) | temp F | wind direction | speed MPH | gust MPH | rain 1hr in | rain 24hr in | rain mn in | humidity % | barometer mb |
| 20260901220013 | 72 | 345 | 4.0 | 8.0 | 0.00 | 0.00 | 0.00 | 67 | 1018.9 |
| 20260901214524 | 72 | 333 | 4.0 | 9.0 | 0.00 | 0.00 | 0.00 | 67 | 1018.8 |
| 20260901213010 | 72 | 340 | 4.0 | 11.0 | 0.00 | 0.00 | 0.00 | 70 | 1018.9 |
| 20260901211509 | 74 | 336 | 4.0 | 8.0 | 0.00 | 0.00 | 0.00 | 71 | 1018.7 |
| 20260901210010 | 73 | 337 | 3.0 | 7.0 | 0.00 | 0.00 | 0.00 | 74 | 1018.8 |
| 20260901204507 | 73 | 352 | 4.0 | 9.0 | 0.00 | 0.00 | 0.00 | 74 | 1018.8 |
| 20260901203007 | 73 | 347 | 5.0 | 8.0 | 0.00 | 0.00 | 0.00 | 73 | 1018.8 |
| 20260901201506 | 73 | 20 | 4.0 | 8.0 | 0.00 | 0.00 | 0.00 | 73 | 1018.7 |
| 20260901200107 | 73 | 339 | 2.0 | 7.0 | 0.00 | 0.00 | 0.00 | 74 | 1018.7 |
| 20260901194504 | 74 | 349 | 3.0 | 8.0 | 0.00 | 0.00 | 0.00 | 74 | 1018.7 |
| 20260901193007 | 74 | 20 | 4.0 | 8.0 | 0.00 | 0.00 | 0.00 | 76 | 1018.5 |
| 20260901191504 | 73 | 321 | 5.0 | 9.0 | 0.00 | 0.00 | 0.00 | 78 | 1018.4 |
| 20260901190004 | 74 | 325 | 3.0 | 10.0 | 0.00 | 0.00 | 0.00 | 78 | 1018.2 |
| 20260901184502 | 73 | 315 | 2.0 | 6.0 | 0.00 | 0.00 | 0.00 | 81 | 1018.3 |
| 20260901183104 | 74 | 348 | 1.0 | 7.0 | 0.00 | 0.00 | 0.00 | 82 | 1018.1 |
| 20260901181600 | 74 | 325 | 1.0 | 4.0 | 0.00 | 0.00 | 0.00 | 82 | 1018.1 |
| 20260901180100 | 75 | 347 | 1.0 | 4.0 | 0.00 | 0.00 | 0.00 | 80 | 1018.2 |
| 20260901174603 | 77 | 281 | 0.0 | 2.0 | 0.00 | 0.00 | 0.00 | 77 | 1018.2 |
| 20260901173058 | 78 | 236 | 0.0 | 3.0 | 0.00 | 0.00 | 0.00 | 75 | 1018.2 |
| 20260901171558 | 80 | 240 | 0.0 | 4.0 | 0.00 | 0.00 | 0.00 | 71 | 1018.2 |
| 20260901170058 | 81 | 157 | 1.0 | 3.0 | 0.00 | 0.00 | 0.00 | 69 | 1018.1 |
| 20260901164603 | 80 | 221 | 0.0 | 4.0 | 0.00 | 0.00 | 0.00 | 70 | 1018.2 |
| 20260901163059 | 80 | 143 | 2.0 | 6.0 | 0.00 | 0.00 | 0.00 | 70 | 1018.1 |
| 20260901161556 | 81 | 131 | 0.0 | 5.0 | 0.00 | 0.00 | 0.00 | 70 | 1018.1 |
| 20260901160101 | 80 | 94 | 1.0 | 7.0 | 0.00 | 0.00 | 0.00 | 72 | 1018.2 |
| 20260901154559 | 81 | 101 | 2.0 | 6.0 | 0.00 | 0.00 | 0.00 | 71 | 1018.1 |
| 20260901153105 | 80 | 98 | 1.0 | 8.0 | 0.00 | 0.00 | 0.00 | 73 | 1018.0 |
| 20260901151554 | 81 | 157 | 2.0 | 7.0 | 0.00 | 0.00 | 0.00 | 70 | 1017.9 |
| 20260901150053 | 80 | 106 | 3.0 | 5.0 | 0.00 | 0.00 | 0.00 | 72 | 1018.0 |
| 20260901144552 | 81 | 238 | 2.0 | 8.0 | 0.00 | 0.00 | 0.00 | 70 | 1018.2 |
| 20260901143051 | 81 | 181 | 5.0 | 9.0 | 0.00 | 0.00 | 0.00 | 69 | 1018.2 |
| 20260901141553 | 81 | 91 | 3.0 | 8.0 | 0.00 | 0.00 | 0.00 | 72 | 1018.2 |
| 20260901140050 | 81 | 115 | 6.0 | 11.0 | 0.00 | 0.00 | 0.00 | 70 | 1018.3 |
| 20260901134550 | 81 | 92 | 5.0 | 10.0 | 0.00 | 0.00 | 0.00 | 70 | 1018.4 |
| 20260901133048 | 81 | 70 | 2.0 | 9.0 | 0.00 | 0.00 | 0.00 | 72 | 1018.4 |
| 20260901131548 | 80 | 129 | 3.0 | 12.0 | 0.00 | 0.00 | 0.00 | 72 | 1018.4 |
| 20260901130047 | 82 | 39 | 3.0 | 10.0 | 0.00 | 0.00 | 0.00 | 71 | 1018.5 |
| 20260901124546 | 81 | 132 | 7.0 | 14.0 | 0.00 | 0.00 | 0.00 | 70 | 1018.6 |
| 20260901123045 | 81 | 134 | 2.0 | 13.0 | 0.00 | 0.00 | 0.00 | 72 | 1018.7 |
| 20260901121544 | 81 | 159 | 5.0 | 14.0 | 0.00 | 0.00 | 0.00 | 71 | 1018.7 |
| 20260901120048 | 81 | 139 | 4.0 | 10.0 | 0.00 | 0.00 | 0.00 | 71 | 1018.5 |
| 20260901114541 | 81 | 123 | 4.0 | 10.0 | 0.00 | 0.00 | 0.00 | 72 | 1018.6 |
| 20260901113041 | 80 | 103 | 7.0 | 13.0 | 0.00 | 0.00 | 0.00 | 72 | 1018.5 |
| 20260901111540 | 81 | 95 | 4.0 | 10.0 | 0.00 | 0.00 | 0.00 | 70 | 1018.6 |
| 20260901110040 | 81 | 159 | 4.0 | 10.0 | 0.00 | 0.00 | 0.00 | 67 | 1018.6 |
| 20260901104541 | 82 | 258 | 3.0 | 10.0 | 0.00 | 0.00 | 0.00 | 67 | 1018.4 |
| 20260901103037 | 81 | 162 | 2.0 | 9.0 | 0.00 | 0.00 | 0.00 | 63 | 1018.5 |
| 20260901101546 | 81 | 153 | 3.0 | 11.0 | 0.00 | 0.00 | 0.00 | 64 | 1018.5 |
| 20260901100034 | 80 | 99 | 2.0 | 8.0 | 0.00 | 0.00 | 0.00 | 62 | 1018.6 |
| 20260901094537 | 80 | 63 | 1.0 | 8.0 | 0.00 | 0.00 | 0.00 | 65 | 1018.6 |
| 20260901093031 | 79 | 79 | 4.0 | 9.0 | 0.00 | 0.00 | 0.00 | 64 | 1018.5 |
| 20260901091529 | 79 | 77 | 4.0 | 8.0 | 0.00 | 0.00 | 0.00 | 61 | 1018.5 |
| 20260901090027 | 78 | 92 | 3.0 | 6.0 | 0.00 | 0.00 | 0.00 | 57 | 1018.4 |
| 20260901084525 | 78 | 76 | 1.0 | 5.0 | 0.00 | 0.00 | 0.00 | 54 | 1018.2 |
| 20260901083024 | 78 | 86 | 2.0 | 4.0 | 0.00 | 0.00 | 0.00 | 49 | 1018.2 |
| 20260901081520 | 77 | 125 | 1.0 | 6.0 | 0.00 | 0.00 | 0.00 | 46 | 1018.0 |
| 20260901080017 | 76 | 72 | 0.0 | 6.0 | 0.00 | 0.00 | 0.00 | 56 | 1017.8 |
| 20260901074515 | 76 | 40 | 1.0 | 5.0 | 0.00 | 0.00 | 0.00 | 66 | 1017.6 |
| 20260901073013 | 74 | 128 | 2.0 | 4.0 | 0.00 | 0.00 | 0.00 | 69 | 1017.6 |
| 20260901071514 | 74 | 78 | 2.0 | 5.0 | 0.00 | 0.00 | 0.00 | 65 | 1017.6 |
| 20260901070011 | 74 | 76 | 1.0 | 3.0 | 0.00 | 0.00 | 0.00 | 61 | 1017.7 |
| 20260901064508 | 74 | 359 | 0.0 | 0.0 | 0.00 | 0.00 | 0.00 | 70 | 1017.5 |
| 20260901063015 | 73 | 359 | 0.0 | 0.0 | 0.00 | 0.00 | 0.00 | 69 | 1017.5 |
| 20260901061503 | 71 | 359 | 0.0 | 3.0 | 0.00 | 0.00 | 0.00 | 65 | 1017.5 |
| 20260901060001 | 69 | 344 | 1.0 | 4.0 | 0.00 | 0.00 | 0.00 | 69 | 1017.4 |
| 20260901054603 | 68 | 359 | 4.0 | 8.0 | 0.00 | 0.00 | 0.00 | 65 | 1017.4 |
| 20260901053116 | 68 | 336 | 4.0 | 8.0 | 0.00 | 0.00 | 0.00 | 67 | 1017.1 |
| 20260901051611 | 68 | 338 | 3.0 | 6.0 | 0.00 | 0.00 | 0.00 | 67 | 1017.1 |
| 20260901050056 | 67 | 340 | 2.0 | 6.0 | 0.00 | 0.00 | 0.00 | 63 | 1017.0 |
| 20260901044554 | 67 | 58 | 2.0 | 5.0 | 0.00 | 0.00 | 0.00 | 60 | 1016.9 |
| 20260901043100 | 68 | 298 | 2.0 | 7.0 | 0.00 | 0.00 | 0.00 | 55 | 1016.8 |
| 20260901041605 | 67 | 312 | 2.0 | 5.0 | 0.00 | 0.00 | 0.00 | 54 | 1016.6 |
| 20260901040055 | 67 | 338 | 0.0 | 2.0 | 0.00 | 0.00 | 0.00 | 58 | 1016.6 |
| 20260901034550 | 68 | 359 | 0.0 | 6.0 | 0.00 | 0.00 | 0.00 | 56 | 1016.6 |
| 20260901033048 | 68 | 345 | 1.0 | 4.0 | 0.00 | 0.00 | 0.00 | 57 | 1016.6 |
| 20260901031555 | 67 | 304 | 1.0 | 4.0 | 0.00 | 0.00 | 0.00 | 62 | 1016.8 |
| 20260901030044 | 68 | 354 | 1.0 | 3.0 | 0.00 | 0.00 | 0.00 | 75 | 1016.9 |
| 20260901024542 | 68 | 333 | 1.0 | 5.0 | 0.00 | 0.00 | 0.00 | 77 | 1016.9 |
| 20260901023041 | 68 | 356 | 4.0 | 8.0 | 0.00 | 0.00 | 0.00 | 74 | 1016.9 |
| 20260901021539 | 68 | 39 | 3.0 | 8.0 | 0.00 | 0.00 | 0.00 | 79 | 1016.8 |
| 20260901020039 | 68 | 342 | 2.0 | 5.0 | 0.00 | 0.00 | 0.00 | 81 | 1016.9 |
| 20260901014544 | 68 | 329 | 1.0 | 4.0 | 0.00 | 0.00 | 0.00 | 80 | 1016.8 |
| 20260901013037 | 69 | 6 | 1.0 | 4.0 | 0.00 | 0.00 | 0.00 | 82 | 1016.7 |
| 20260901011535 | 69 | 334 | 0.0 | 3.0 | 0.00 | 0.00 | 0.00 | 81 | 1016.7 |
| 20260901010035 | 69 | 333 | 0.0 | 2.0 | 0.00 | 0.00 | 0.00 | 80 | 1016.6 |
| 20260901004533 | 69 | 336 | 1.0 | 2.0 | 0.00 | 0.00 | 0.00 | 73 | 1016.6 |
| 20260901003034 | 70 | 327 | 0.0 | 3.0 | 0.00 | 0.00 | 0.00 | 69 | 1016.5 |
| 20260901001541 | 69 | 328 | 1.0 | 3.0 | 0.00 | 0.00 | 0.00 | 63 | 1016.6 |
| 20260901000029 | 69 | 332 | 0.0 | 3.0 | 0.00 | 0.00 | 0.00 | 68 | 1016.6 |
| 20260831234530 | 69 | 343 | 2.0 | 4.0 | 0.00 | 0.00 | 0.00 | 66 | 1016.8 |
| 20260831233025 | 70 | 309 | 2.0 | 4.0 | 0.00 | 0.00 | 0.00 | 70 | 1016.8 |
| 20260831231525 | 70 | 347 | 0.0 | 3.0 | 0.00 | 0.00 | 0.00 | 73 | 1016.8 |
| 20260831230024 | 70 | 346 | 1.0 | 5.0 | 0.00 | 0.00 | 0.00 | 72 | 1016.8 |
| 20260831224520 | 70 | 333 | 2.0 | 7.0 | 0.00 | 0.00 | 0.00 | 77 | 1016.8 |
| 20260831223020 | 70 | 7 | 3.0 | 6.0 | 0.00 | 0.00 | 0.00 | 80 | 1016.7 |
| 20260831221517 | 71 | 314 | 1.0 | 4.0 | 0.00 | 0.00 | 0.00 | 81 | 1016.8 |